Regional Weather Roundup
Issued by NWS

Home | Current Version | Previous Version | Text Only | Print | Product List | Glossary Off
Versions: 1 2 3 4 5 6 7 8 9 10 11 12 13 14 15 16 17 18 19 20 21 22 23 24 25 26 27 28 29 30 31 32 33 34 35 36 37 38 39 40 41 42 43 44 45 46 47 48 49 50

000
ASUS43 KDMX 241306
RWRIA

WEATHER ROUNDUP FOR IOWA
NATIONAL WEATHER SERVICE DES MOINES IA
700 AM CST TUE JAN 24 2017

NOTE: "FAIR" INDICATES FEW OR NO CLOUDS BELOW 12,000 FEET WITH NO
SIGNIFICANT WEATHER AND/OR OBSTRUCTIONS TO VISIBILITY.

* - THESE STATIONS ARE NOT NWS STATIONS...THUS NOT UNDER NWS
QUALITY CONTROL.  THEY ALSO DO NOT REPORT WEATHER SUCH
AS PRECIPITATION OR FOG.

IAZ001>003-012>014-020>022-031>034-043>046-241400-
   NORTHWEST IOWA

CITY           SKY/WX    TMP DP  RH WIND       PRES   REMARKS
CARROLL *      CLOUDY    32  32 100 E13       29.80F WCI  22
CHEROKEE *     CLOUDY    31  30  95 E10       29.82S WCI  23
DENISON *      CLOUDY    30  28  93 E13G21    29.77S WCI  20
LE MARS *      CLOUDY    32  28  86 E10G17    29.81R WCI  24
ORANGE CITY *  CLOUDY    30  28  93 E9        29.80S WCI  22
SHELDON *      CLOUDY    30  30 100 E12       29.80S WCI  21
SIOUX CITY     CLOUDY    32  29  88 E12       29.79R WCI  23
SPENCER        CLOUDY    31  28  89 E12       29.83S WCI  22
STORM LAKE *   CLOUDY    30  28  93 E14G21    29.80S WCI  20
$$

IAZ055>058-069>071-079>083-090>094-241400-
   SOUTHWEST IOWA

CITY           SKY/WX    TMP DP  RH WIND       PRES   REMARKS
ATLANTIC *     CLOUDY    30  30 100 E12G18    29.79S FOG     WCI  21
AUDUBON *      CLOUDY    30  27  86 E10       29.80F FOG     WCI  21
CLARINDA *     CLOUDY    30  32 100 VRB5G14   29.78F WCI  25
COUNCIL BLFS * CLOUDY    30  30 100 E12       29.75S FOG     WCI  21
CRESTON *      CLOUDY    28  28 100 E13       29.80F FOG     WCI  18
HARLAN  *      CLOUDY    30  30 100 E15       29.82R WCI  19
LAMONI         CLOUDY    29  27  92 E9        29.79F WCI  20
RED OAK *      CLOUDY    30  30 100 E9G22     29.76F WCI  22
SHENANDOAH *   CLOUDY    32  30  93 E12       29.76S FOG     WCI  23
$$

IAZ047>049-059>061-072>074-084-241400-
   CENTRAL IOWA

CITY           SKY/WX    TMP DP  RH WIND       PRES   REMARKS
AMES           CLOUDY    32  30  92 SE6       29.86R WCI  26
ANKENY *       CLOUDY    32  28  86 SE7       29.87S WCI  26
BOONE *        CLOUDY    32  32 100 E8        29.84R WCI  25
CHARITON *     CLOUDY    30  28  93 E8        29.84S FOG     WCI  23
DES MOINES     CLOUDY    32  28  85 SE9       29.85S WCI  24
GRINNELL*      CLOUDY    32  29  88 E3        29.86S
KNOXVILLE *    CLOUDY    30  28  93 E7        29.84S WCI  23
MARSHALLTOWN   CLOUDY    32  29  88 E5        29.85F WCI  27
NEWTON *       CLOUDY    32  30  93 SE5       29.86R WCI  27
PELLA *        CLOUDY    31  29  91 E3        29.88R
PERRY *        CLOUDY    32  30  93 E10       29.83F WCI  24
$$

IAZ004>006-015-016-023>025-035-036-241400-
   NORTH CENTRAL IOWA

CITY           SKY/WX    TMP DP  RH WIND       PRES   REMARKS
ALGONA *       CLOUDY    32  30  93 E9        29.85S WCI  24
CLARION *      CLOUDY    32  32 100 NE9       29.85S WCI  24
ESTHERVILLE    CLOUDY    30  30 100 E7        29.85R WCI  23
FORT DODGE *   CLOUDY    30  27  86 E10       29.85R WCI  21
MASON CITY     CLOUDY    30  27  88 E3        29.87R
FOREST CITY *  CLOUDY    30  30 100 E6        29.86R WCI  24
WEBSTER CITY * CLOUDY    32 N/A N/A E9        29.83R WCI  24
IOWA FALLS *   CLOUDY    32  29  89 NE5       29.86S WCI  27
$$

IAZ007>011-017>019-026>030-037>042-050>054-066-241400-
   NORTHEAST IOWA

CITY           SKY/WX    TMP DP  RH WIND       PRES   REMARKS
CEDAR RAPIDS   CLOUDY    32  28  85 CALM      29.87R
CHARLES CITY * CLOUDY    32  32 100 E6        29.87S WCI  26
CLINTON *      CLOUDY    32  31  96 W3        29.90R
DECORAH *      CLOUDY    32  28  86 CALM      29.85S
DUBUQUE        CLOUDY    32  29  88 W5        29.88R WCI  27
MONTICELLO *   CLOUDY    32  30  93 CALM      29.88S
OELWEIN *      CLOUDY    32  28  86 CALM      29.88R
WATERLOO       CLOUDY    32  26  78 NE7       29.86F WCI  26
$$

IAZ064-065-067-068-078-241400-
   EAST CENTRAL IOWA

CITY           SKY/WX    TMP DP  RH WIND       PRES   REMARKS
DAVENPORT      CLOUDY    32  30  92 W3        29.90R
IOWA CITY      CLOUDY    33  28  81 CALM      29.90S
MUSCATINE *    CLOUDY    34  28  80 CALM      29.90S
QUAD CITIES    CLOUDY    34  30  85 CALM      29.89R
$$

IAZ062-063-075>077-085>089-095>099-241400-
   SOUTHEAST IOWA

CITY           SKY/WX    TMP DP  RH WIND       PRES   REMARKS
BURLINGTON     CLOUDY    33  30  88 CALM      29.88S
FAIRFIELD *    CLOUDY    30  28  93 E5        29.86F WCI  25
FORT MADISON * CLOUDY    32  28  86 CALM      29.88F
KEOKUK *       CLOUDY    32 N/A N/A CALM      29.87F
OSKALOOSA *    CLOUDY    31  28  92 CALM      29.87S
CENTERVILLE *  CLOUDY    30  30 100 E8        29.85S WCI  23
OTTUMWA        CLOUDY    31  28  89 E7        29.86S WCI  24
WASHINGTON *   CLOUDY    32  30  93 CALM      29.89S
$$

ABBREVIATIONS USED IN REMARKS
   TC - TEMPERATURES IN CELSIUS
  WCI - WIND CHILL INDEX
   HX - HEAT INDEX
  VSB - VISIBILITY
$$





USA.gov is the U.S. government's official web portal to all federal, state and local government web resources and services.